Location: Los Gatos B&B
(42.6926°N, 77.0646°W)
Time: 01:19:24
(UTC-04:00)

SL-16 R/B - Visible Passes

Search period start: 19 April 2014 00:00
Search period end: 29 April 2014 00:00
Orbit: 842 x 849 km, 71.0° (Epoch: 17 April)

Date Brightness Start Highest point End Pass type
(mag) Time Alt. Az. Time Alt. Az. Time Alt. Az.
19 Apr 3.8 21:27:29 10° NW 21:32:26 32° WSW 21:37:22 10° SSW visible
20 Apr 3.8 21:13:31 10° NW 21:18:31 33° WSW 21:23:30 10° SSW visible
21 Apr 3.8 20:59:33 10° NW 21:04:36 34° WSW 21:09:37 10° SSW visible
22 Apr 3.8 20:45:35 10° NW 20:50:41 35° WSW 20:55:44 10° S visible
23 Apr 3.8 20:31:38 10° NW 20:36:45 37° WSW 20:41:51 10° S visible
